This demonstration page uses our WeatherBlox Daily Observations layout. Learn more.

Left ArrowRight Arrow

39.92423, -83.80882

Hourly Observations for August 28, 2022

Temp ( °F °C ) Dew Point ( °F °C ) Humidity (%) Winds ( mph kmh ) Pressure ( in mb ) Visibility ( mi km ) Precip ( " mm )
12:56 am 00:56 Clear N/A N/A N/A E 3 6 30.10 1019 10 16 0.00 0.00
1:56 am 01:56 Clear 60 15.6 N/A N/A Calm 30.04 1017 10 16 0.00 0.00
2:56 am 02:56 Clear 62 16.7 N/A N/A ESE 6 9 30.02 1017 10 16 0.00 0.00
3:56 am 03:56 Clear N/A N/A N/A ESE 3 6 30.10 1019 10 16 0.00 0.00
4:56 am 04:56 Hazy N/A N/A N/A E 5 7 30.10 1019 6 10 0.00 0.00
5:56 am 05:56 Hazy N/A N/A N/A E 5 7 30.10 1019 5 8 0.00 0.00
6:56 am 06:56 Hazy N/A N/A N/A E 5 7 30.10 1019 4 6 0.00 0.00
7:56 am 07:56 Hazy N/A N/A N/A ESE 3 6 30.12 1020 5 8 0.00 0.00
8:56 am 08:56 Sunny 71 21.7 71 21.7 100 100 SE 7 11 30.06 1018 10 16 0.00 0.00
9:56 am 09:56 Sunny 76 24.4 69 20.6 79 79 SSE 9 15 30.06 1018 10 16 0.00 0.00
10:56 am 10:56 Sunny 80 26.7 68 20 67 67 SSE 9 15 30.06 1018 10 16 0.00 0.00
11:56 am 11:56 Sunny 83 28.3 70 21.1 65 65 S 6 9 30.05 1018 10 16 0.00 0.00
12:56 pm 12:56 Sunny 85 29.4 71 21.7 63 63 S 6 9 30.00 1016 10 16 0.00 0.00
1:56 pm 13:56 Sunny 87 30.6 72 22.2 61 61 S 9 15 30.02 1017 8 13 0.00 0.00
2:56 pm 14:56 Mostly Sunny 87 30.6 72 22.2 61 61 S 7 11 30.00 1016 10 16 0.00 0.00
3:56 pm 15:56 Mostly Sunny 87 30.6 70 21.1 57 57 S 8 13 29.94 1014 10 16 0.00 0.00
4:56 pm 16:56 Mostly Sunny 86 30 70 21.1 59 59 SSE 9 15 29.93 1013 9 14 0.00 0.00
5:56 pm 17:56 Sunny 86 30 71 21.7 61 61 S 12 19 29.91 1013 10 16 0.00 0.00
6:56 pm 18:56 Sunny 84 28.9 70 21.1 63 63 S 10 17 29.90 1012 10 16 0.00 0.00
7:56 pm 19:56 Sunny 80 26.7 73 22.8 79 79 SSE 6 9 29.91 1013 10 16 0.00 0.00
8:56 pm 20:56 Clear 77 25 75 23.9 94 94 SSE 6 9 29.97 1015 10 16 0.00 0.00
9:56 pm 21:56 Clear 76 24.4 76 24.4 100 100 SSE 7 11 29.97 1015 10 16 0.00 0.00
10:56 pm 22:56 Clear 76 24.4 76 24.4 100 100 SSE 6 9 29.97 1015 10 16 0.00 0.00
11:56 pm 23:56 Clear 75 23.9 N/A N/A S 7 11 29.98 1015 10 16 0.00 0.00

Powered by AerisWeather